Location: Oshawa
(43.9000°N, 78.8670°W)
Time: 14:41:09
(UTC-04:00)

Courier 1B - All Passes

Search period start: 18 April 2014 00:00
Search period end: 28 April 2014 00:00
Orbit: 963 x 1209 km, 28.3° (Epoch: 17 April)

Date Brightness Start Highest point End Pass type
(mag) Time Alt. Az. Time Alt. Az. Time Alt. Az.
18 Apr - 14:38:13 10° S 14:41:31 14° SSE 14:44:45 10° SE daylight
18 Apr - 16:29:35 10° SW 16:34:31 21° S 16:39:16 10° SE daylight
18 Apr - 18:23:04 10° SW 18:27:29 18° S 18:31:48 10° SSE daylight
19 Apr - 13:45:58 10° S 13:48:03 11° SSE 13:50:05 10° SE daylight
19 Apr - 15:36:07 10° SW 15:41:01 20° S 15:45:45 10° SE daylight
19 Apr - 17:29:13 10° SW 17:34:03 20° S 17:38:43 10° SE daylight
19 Apr - 19:24:30 10° SW 19:26:53 12° SSW 19:29:14 10° S daylight
20 Apr - 14:42:47 10° SSW 14:47:31 18° SSE 14:52:05 10° SE daylight
20 Apr - 16:35:27 10° SW 16:40:35 22° S 16:45:30 10° SE daylight
20 Apr - 18:29:53 10° SW 18:33:30 15° SSW 18:37:02 10° SSE daylight
21 Apr - 13:49:37 10° SSW 13:54:00 17° SSE 13:58:15 10° SE daylight
21 Apr - 15:41:46 10° SW 15:47:04 22° S 15:52:10 10° SE daylight
21 Apr - 17:35:41 10° SW 17:40:04 18° SSW 17:44:20 10° SSE daylight
22 Apr - 12:56:45 10° S 13:00:28 14° SSE 13:04:07 10° SE daylight
22 Apr - 14:48:09 10° SW 14:53:33 22° S 14:58:43 10° SE daylight
22 Apr - 16:41:40 10° SW 16:46:37 20° S 16:51:22 10° SE daylight
22 Apr - 18:38:20 10° SSW 18:39:25 10° SSW 18:40:30 10° SSW daylight
23 Apr - 12:04:27 10° S 12:06:57 12° SSE 12:09:25 10° SE daylight
23 Apr - 13:54:40 10° SW 13:59:59 21° S 14:05:08 10° SE daylight
23 Apr - 15:47:46 10° SW 15:53:07 22° S 15:58:14 10° SE daylight
23 Apr - 17:42:47 10° SW 17:46:02 14° SSW 17:49:11 10° S daylight
24 Apr - 13:01:19 10° SSW 13:06:26 19° SSE 13:11:23 10° SE daylight
24 Apr - 14:53:58 10° SW 14:59:34 23° S 15:04:57 10° SE daylight
24 Apr - 16:48:18 10° SW 16:52:35 17° SSW 16:56:44 10° SSE daylight
25 Apr - 12:08:11 10° SSW 12:12:51 17° SSE 12:17:26 10° SE daylight
25 Apr - 14:00:16 10° SW 14:06:00 23° S 14:11:32 10° SE daylight
25 Apr - 15:54:07 10° SW 15:59:07 20° SSW 16:03:55 10° SSE daylight
26 Apr - 11:15:23 10° S 11:19:18 15° SSE 11:23:10 10° SE daylight
26 Apr - 13:06:40 10° SW 13:12:25 23° S 13:17:59 10° SE daylight
26 Apr - 15:00:07 10° SW 15:05:35 22° S 15:10:51 10° SE daylight
26 Apr - 16:55:53 10° SW 16:58:29 12° SSW 17:01:03 10° S daylight
27 Apr - 10:23:15 10° S 10:25:45 12° SSE 10:28:15 10° SE daylight
27 Apr - 12:13:13 10° SW 12:18:48 22° S 12:24:16 10° ESE daylight
27 Apr - 14:06:14 10° SW 14:12:01 23° S 14:17:36 10° SE daylight
27 Apr - 16:01:00 10° SW 16:05:02 15° SSW 16:08:58 10° SSE daylight
